Wetterdaten: Mittwoch, 30.12.2015
Datum Zeit Auen-Temp. Temp gefhlt Luftfeuchte Luftdruck Regen Wind Richtung Richtung Taupunkt Windben
30.12.2015 00:00 -1,7 C -2,1 C 79 % 1030,9 hPa 0,0 mm 0,0 km/h (0 Bft) NO 45 -4,8 C 0,0 km/h (0 Bft)
30.12.2015 00:05 -1,9 C -2,2 C 79 % 1030,9 hPa 0,0 mm 0,0 km/h (0 Bft) N-NW 337 -5,0 C 0,0 km/h (0 Bft)
30.12.2015 00:10 -1,7 C -2,1 C 79 % 1030,9 hPa 0,0 mm 0,0 km/h (0 Bft) O-NO 67 -4,8 C 0,0 km/h (0 Bft)
30.12.2015 00:15 -1,6 C -2,0 C 79 % 1030,8 hPa 0,0 mm 0,0 km/h (0 Bft) O 90 -4,8 C 0,0 km/h (0 Bft)
30.12.2015 00:20 -1,5 C -1,9 C 80 % 1030,8 hPa 0,0 mm 0,0 km/h (0 Bft) NO 45 -4,5 C 0,0 km/h (0 Bft)
30.12.2015 00:25 -1,6 C -1,9 C 80 % 1030,8 hPa 0,0 mm 0,0 km/h (0 Bft) O-NO 67 -4,6 C 0,0 km/h (0 Bft)
30.12.2015 00:30 -1,3 C -1,6 C 80 % 1030,8 hPa 0,0 mm 0,3 km/h (0 Bft) O-NO 67 -4,3 C 0,0 km/h (0 Bft)
30.12.2015 00:35 -1,2 C -1,5 C 80 % 1031,0 hPa 0,0 mm 0,3 km/h (0 Bft) O 90 -4,2 C 0,0 km/h (0 Bft)
30.12.2015 00:40 -1,3 C -1,5 C 80 % 1031,0 hPa 0,0 mm 0,0 km/h (0 Bft) O 90 -4,3 C 0,0 km/h (0 Bft)
30.12.2015 00:45 -1,4 C -1,6 C 80 % 1031,0 hPa 0,0 mm 0,0 km/h (0 Bft) O-NO 67 -4,4 C 0,0 km/h (0 Bft)
30.12.2015 00:50 -1,1 C -1,4 C 80 % 1031,0 hPa 0,0 mm 0,0 km/h (0 Bft) O-SO 112 -4,1 C 0,0 km/h (0 Bft)
30.12.2015 00:54 -0,8 C -1,2 C 81 % 1031,0 hPa 0,0 mm 0,0 km/h (0 Bft) N-NO 22 -3,6 C 0,0 km/h (0 Bft)
30.12.2015 00:55 -0,8 C -1,2 C 81 % 1031,0 hPa 0,0 mm 0,0 km/h (0 Bft) N-NO 22 -3,6 C 0,0 km/h (0 Bft)
30.12.2015 01:00 -1,1 C -1,4 C 80 % 1031,0 hPa 0,0 mm 0,0 km/h (0 Bft) N-NO 22 -4,1 C 0,0 km/h (0 Bft)
30.12.2015 01:05 -1,1 C -1,4 C 80 % 1031,0 hPa 0,0 mm 0,0 km/h (0 Bft) N-NO 22 -4,1 C 0,0 km/h (0 Bft)
30.12.2015 01:10 -1,2 C -1,4 C 80 % 1031,0 hPa 0,0 mm 0,0 km/h (0 Bft) NO 45 -4,2 C 0,0 km/h (0 Bft)
30.12.2015 01:15 -1,1 C -1,3 C 80 % 1030,9 hPa 0,0 mm 0,0 km/h (0 Bft) O-SO 112 -4,1 C 0,0 km/h (0 Bft)
30.12.2015 01:20 -0,8 C -1,1 C 81 % 1030,9 hPa 0,0 mm 0,0 km/h (0 Bft) O-NO 67 -3,6 C 0,0 km/h (0 Bft)
30.12.2015 01:25 -1,1 C -1,3 C 81 % 1030,9 hPa 0,0 mm 0,0 km/h (0 Bft) N-NO 22 -3,9 C 0,0 km/h (0 Bft)
30.12.2015 01:30 -1,1 C -1,3 C 81 % 1030,9 hPa 0,0 mm 0,0 km/h (0 Bft) O 90 -3,9 C 0,0 km/h (0 Bft)
30.12.2015 01:35 -1,3 C -1,5 C 80 % 1030,7 hPa 0,0 mm 0,0 km/h (0 Bft) N-NO 22 -4,3 C 0,0 km/h (0 Bft)
30.12.2015 01:40 -1,6 C -1,8 C 80 % 1030,7 hPa 0,0 mm 0,0 km/h (0 Bft) N-NO 22 -4,6 C 0,0 km/h (0 Bft)
30.12.2015 01:45 -1,5 C -1,8 C 80 % 1030,7 hPa 0,0 mm 0,0 km/h (0 Bft) N-NO 22 -4,5 C 0,0 km/h (0 Bft)
30.12.2015 01:50 -0,9 C -1,4 C 82 % 1030,7 hPa 0,0 mm 0,0 km/h (0 Bft) S-SO 157 -3,6 C 0,0 km/h (0 Bft)
30.12.2015 01:55 -1,1 C -1,4 C 82 % 1030,3 hPa 0,0 mm 0,3 km/h (0 Bft) W-SW 247 -3,8 C 0,0 km/h (0 Bft)
30.12.2015 02:00 -0,9 C -1,2 C 83 % 1030,3 hPa 0,0 mm 0,3 km/h (0 Bft) O 90 -3,4 C 0,0 km/h (0 Bft)
30.12.2015 02:05 -0,8 C -1,1 C 83 % 1030,3 hPa 0,0 mm 0,3 km/h (0 Bft) N 360 -3,3 C 0,0 km/h (0 Bft)
30.12.2015 02:10 -1,7 C -1,9 C 82 % 1030,3 hPa 0,0 mm 0,3 km/h (0 Bft) N 360 -4,4 C 0,0 km/h (0 Bft)
30.12.2015 02:15 -1,7 C -2,0 C 82 % 1030,5 hPa 0,0 mm 0,0 km/h (0 Bft) N 360 -4,4 C 0,0 km/h (0 Bft)
30.12.2015 02:20 -2,0 C -2,3 C 82 % 1030,5 hPa 0,0 mm 0,0 km/h (0 Bft) N 360 -4,7 C 0,0 km/h (0 Bft)
30.12.2015 02:25 -1,7 C -2,1 C 82 % 1030,5 hPa 0,0 mm 0,0 km/h (0 Bft) N 360 -4,4 C 0,0 km/h (0 Bft)
30.12.2015 02:30 -2,0 C -2,4 C 82 % 1030,5 hPa 0,0 mm 0,0 km/h (0 Bft) N 360 -4,7 C 0,0 km/h (0 Bft)
30.12.2015 02:35 -2,2 C -2,6 C 82 % 1030,4 hPa 0,0 mm 0,0 km/h (0 Bft) N 360 -4,8 C 0,0 km/h (0 Bft)
30.12.2015 02:40 -2,4 C -2,8 C 81 % 1030,4 hPa 0,0 mm 0,0 km/h (0 Bft) N 360 -5,2 C 0,0 km/h (0 Bft)
30.12.2015 02:45 -2,5 C -2,8 C 82 % 1030,4 hPa 0,0 mm 0,0 km/h (0 Bft) N 360 -5,1 C 0,0 km/h (0 Bft)
30.12.2015 02:50 -2,4 C -2,8 C 82 % 1030,4 hPa 0,0 mm 0,0 km/h (0 Bft) S 180 -5,0 C 0,0 km/h (0 Bft)
30.12.2015 02:55 -2,4 C -2,7 C 82 % 1030,5 hPa 0,0 mm 0,3 km/h (0 Bft) S-SO 157 -5,0 C 3,9 km/h (1 Bft)
30.12.2015 03:00 -2,1 C -2,4 C 83 % 1030,5 hPa 0,0 mm 0,3 km/h (0 Bft) SO 135 -4,6 C 4,7 km/h (1 Bft)
30.12.2015 03:05 -1,1 C -1,7 C 85 % 1030,5 hPa 0,0 mm 0,8 km/h (0 Bft) S-SO 157 -3,3 C 0,0 km/h (0 Bft)
30.12.2015 03:10 -2,2 C -2,3 C 84 % 1030,5 hPa 0,0 mm 0,5 km/h (0 Bft) SO 135 -4,5 C 0,0 km/h (0 Bft)
30.12.2015 03:15 -2,2 C -2,4 C 84 % 1030,2 hPa 0,0 mm 0,0 km/h (0 Bft) SO 135 -4,5 C 0,0 km/h (0 Bft)
30.12.2015 03:20 -2,5 C -2,7 C 84 % 1030,2 hPa 0,0 mm 0,0 km/h (0 Bft) SO 135 -4,8 C 0,0 km/h (0 Bft)
30.12.2015 03:25 -2,6 C -2,9 C 84 % 1030,2 hPa 0,0 mm 0,0 km/h (0 Bft) SO 135 -4,9 C 0,0 km/h (0 Bft)
30.12.2015 03:30 -2,5 C -2,8 C 84 % 1030,2 hPa 0,0 mm 0,0 km/h (0 Bft) SO 135 -4,8 C 0,0 km/h (0 Bft)
30.12.2015 03:35 -2,5 C -2,9 C 84 % 1030,0 hPa 0,0 mm 0,0 km/h (0 Bft) SO 135 -4,8 C 0,0 km/h (0 Bft)
30.12.2015 03:40 -2,4 C -2,9 C 84 % 1030,0 hPa 0,0 mm 0,0 km/h (0 Bft) SO 135 -4,7 C 0,0 km/h (0 Bft)
30.12.2015 03:45 -2,5 C -2,9 C 84 % 1030,0 hPa 0,0 mm 0,0 km/h (0 Bft) SO 135 -4,8 C 0,0 km/h (0 Bft)
30.12.2015 03:50 -2,5 C -2,9 C 84 % 1030,0 hPa 0,0 mm 0,0 km/h (0 Bft) SO 135 -4,8 C 0,0 km/h (0 Bft)
30.12.2015 03:55 -2,6 C -3,0 C 84 % 1030,0 hPa 0,0 mm 0,0 km/h (0 Bft) SO 135 -4,9 C 0,0 km/h (0 Bft)
30.12.2015 04:00 -2,6 C -3,0 C 84 % 1030,0 hPa 0,0 mm 0,0 km/h (0 Bft) SO 135 -4,9 C 0,0 km/h (0 Bft)
30.12.2015 04:05 -2,7 C -3,0 C 84 % 1030,0 hPa 0,0 mm 0,0 km/h (0 Bft) SO 135 -5,0 C 0,0 km/h (0 Bft)
30.12.2015 04:10 -2,5 C -2,9 C 84 % 1030,0 hPa 0,0 mm 0,0 km/h (0 Bft) SO 135 -4,8 C 0,0 km/h (0 Bft)
30.12.2015 04:15 -2,4 C -2,8 C 85 % 1029,8 hPa 0,0 mm 0,0 km/h (0 Bft) SO 135 -4,6 C 0,0 km/h (0 Bft)
30.12.2015 04:20 -2,2 C -2,6 C 85 % 1029,8 hPa 0,0 mm 0,0 km/h (0 Bft) SO 135 -4,4 C 0,0 km/h (0 Bft)
30.12.2015 04:25 -2,2 C -2,6 C 85 % 1029,8 hPa 0,0 mm 0,0 km/h (0 Bft) SO 135 -4,4 C 0,0 km/h (0 Bft)
30.12.2015 04:30 -2,8 C -3,1 C 85 % 1029,8 hPa 0,0 mm 0,0 km/h (0 Bft) SO 135 -5,0 C 0,0 km/h (0 Bft)
30.12.2015 04:35 -2,8 C -3,2 C 85 % 1029,2 hPa 0,0 mm 0,0 km/h (0 Bft) SO 135 -5,0 C 0,0 km/h (0 Bft)
30.12.2015 04:40 -2,6 C -3,0 C 85 % 1029,2 hPa 0,0 mm 0,0 km/h (0 Bft) SO 135 -4,8 C 0,0 km/h (0 Bft)
30.12.2015 04:45 -2,8 C -3,2 C 85 % 1029,2 hPa 0,0 mm 0,0 km/h (0 Bft) SO 135 -5,0 C 0,0 km/h (0 Bft)
30.12.2015 04:50 -2,9 C -3,2 C 85 % 1029,2 hPa 0,0 mm 0,0 km/h (0 Bft) SO 135 -5,1 C 0,0 km/h (0 Bft)
30.12.2015 04:55 -2,8 C -3,1 C 85 % 1029,4 hPa 0,0 mm 0,0 km/h (0 Bft) SO 135 -5,0 C 0,0 km/h (0 Bft)
30.12.2015 05:00 -2,7 C -3,0 C 85 % 1029,4 hPa 0,0 mm 0,0 km/h (0 Bft) SO 135 -4,9 C 0,0 km/h (0 Bft)
30.12.2015 05:05 -2,8 C -3,1 C 85 % 1029,4 hPa 0,0 mm 0,0 km/h (0 Bft) SO 135 -5,0 C 0,0 km/h (0 Bft)
30.12.2015 05:10 -3,0 C -3,2 C 85 % 1029,4 hPa 0,0 mm 0,0 km/h (0 Bft) SO 135 -5,2 C 0,0 km/h (0 Bft)
30.12.2015 05:15 -3,0 C -3,3 C 85 % 1029,4 hPa 0,0 mm 0,0 km/h (0 Bft) SO 135 -5,2 C 0,0 km/h (0 Bft)
30.12.2015 05:20 -3,0 C -3,3 C 85 % 1029,4 hPa 0,0 mm 0,0 km/h (0 Bft) SO 135 -5,2 C 0,0 km/h (0 Bft)
30.12.2015 05:25 -3,3 C -3,5 C 85 % 1029,4 hPa 0,0 mm 0,0 km/h (0 Bft) SO 135 -5,5 C 0,0 km/h (0 Bft)
30.12.2015 05:30 -3,0 C -3,3 C 85 % 1029,4 hPa 0,0 mm 0,0 km/h (0 Bft) S 180 -5,2 C 0,0 km/h (0 Bft)
30.12.2015 05:35 -2,7 C -3,1 C 85 % 1029,1 hPa 0,0 mm 0,0 km/h (0 Bft) SO 135 -4,9 C 0,0 km/h (0 Bft)
30.12.2015 05:40 -2,8 C -3,1 C 86 % 1029,1 hPa 0,0 mm 0,0 km/h (0 Bft) SO 135 -4,8 C 0,0 km/h (0 Bft)
30.12.2015 05:45 -2,7 C -3,0 C 86 % 1029,1 hPa 0,0 mm 0,0 km/h (0 Bft) SO 135 -4,7 C 0,0 km/h (0 Bft)
30.12.2015 05:50 -3,0 C -3,3 C 86 % 1029,1 hPa 0,0 mm 0,0 km/h (0 Bft) W 270 -5,0 C 0,0 km/h (0 Bft)
30.12.2015 05:55 -3,1 C -3,3 C 86 % 1029,2 hPa 0,0 mm 0,0 km/h (0 Bft) W 270 -5,1 C 0,0 km/h (0 Bft)
30.12.2015 06:00 -2,8 C -3,2 C 86 % 1029,2 hPa 0,0 mm 0,0 km/h (0 Bft) S 180 -4,8 C 0,0 km/h (0 Bft)
30.12.2015 06:05 -2,1 C -2,5 C 82 % 1029,2 hPa 0,0 mm 0,0 km/h (0 Bft) S-SO 157 -4,7 C 0,0 km/h (0 Bft)
30.12.2015 06:10 -1,7 C -2,2 C 82 % 1029,2 hPa 0,0 mm 0,5 km/h (0 Bft) S 180 -4,4 C 2,6 km/h (1 Bft)
30.12.2015 06:15 -2,5 C -2,7 C 88 % 1029,0 hPa 0,0 mm 1,0 km/h (0 Bft) SO 135 -4,2 C 0,0 km/h (0 Bft)
30.12.2015 06:20 -3,4 C -3,4 C 87 % 1029,0 hPa 0,0 mm 1,0 km/h (0 Bft) SO 135 -5,2 C 0,0 km/h (0 Bft)
30.12.2015 06:25 -3,6 C -3,7 C 86 % 1029,0 hPa 0,0 mm 0,3 km/h (0 Bft) O-NO 67 -5,6 C 0,0 km/h (0 Bft)
30.12.2015 06:30 -3,6 C -3,7 C 86 % 1029,0 hPa 0,0 mm 0,3 km/h (0 Bft) O-NO 67 -5,6 C 0,0 km/h (0 Bft)
30.12.2015 06:35 -3,1 C -3,5 C 86 % 1029,0 hPa 0,0 mm 0,0 km/h (0 Bft) O-NO 67 -5,1 C 0,0 km/h (0 Bft)
30.12.2015 06:40 -3,2 C -3,6 C 87 % 1029,0 hPa 0,0 mm 0,0 km/h (0 Bft) O-NO 67 -5,0 C 0,0 km/h (0 Bft)
30.12.2015 06:45 -3,1 C -3,5 C 87 % 1029,0 hPa 0,0 mm 0,0 km/h (0 Bft) O-NO 67 -4,9 C 0,0 km/h (0 Bft)
30.12.2015 06:50 -3,4 C -3,7 C 87 % 1029,0 hPa 0,0 mm 0,0 km/h (0 Bft) O-NO 67 -5,2 C 0,0 km/h (0 Bft)
30.12.2015 06:55 -3,5 C -3,8 C 86 % 1028,7 hPa 0,0 mm 0,0 km/h (0 Bft) O-NO 67 -5,5 C 0,0 km/h (0 Bft)
30.12.2015 07:00 -4,0 C -4,2 C 86 % 1028,7 hPa 0,0 mm 0,0 km/h (0 Bft) O-NO 67 -6,0 C 0,0 km/h (0 Bft)
30.12.2015 07:05 -3,9 C -4,1 C 86 % 1028,7 hPa 0,0 mm 0,0 km/h (0 Bft) O-NO 67 -5,9 C 0,0 km/h (0 Bft)
30.12.2015 07:10 -4,0 C -4,2 C 86 % 1028,7 hPa 0,0 mm 0,0 km/h (0 Bft) O-NO 67 -6,0 C 0,0 km/h (0 Bft)
30.12.2015 07:15 -4,1 C -4,3 C 86 % 1028,7 hPa 0,0 mm 0,0 km/h (0 Bft) O-NO 67 -6,1 C 0,0 km/h (0 Bft)
30.12.2015 07:20 -3,6 C -3,7 C 81 % 1028,7 hPa 0,0 mm 0,0 km/h (0 Bft) S-SO 157 -6,4 C 2,8 km/h (1 Bft)
30.12.2015 07:25 -2,9 C -3,0 C 82 % 1028,7 hPa 0,0 mm 0,5 km/h (0 Bft) S-SO 157 -5,5 C 2,8 km/h (1 Bft)
30.12.2015 07:30 -2,6 C -2,7 C 83 % 1028,7 hPa 0,0 mm 1,6 km/h (1 Bft) SO 135 -5,1 C 0,0 km/h (0 Bft)
30.12.2015 07:35 -3,4 C -3,4 C 88 % 1028,7 hPa 0,0 mm 1,3 km/h (1 Bft) O-SO 112 -5,1 C 0,0 km/h (0 Bft)
30.12.2015 07:40 -4,0 C -4,1 C 88 % 1028,7 hPa 0,0 mm 0,0 km/h (0 Bft) O-SO 112 -5,7 C 0,0 km/h (0 Bft)
30.12.2015 07:45 -4,0 C -4,2 C 87 % 1028,7 hPa 0,0 mm 0,0 km/h (0 Bft) SO 135 -5,8 C 0,0 km/h (0 Bft)
30.12.2015 07:50 -3,6 C -3,8 C 82 % 1028,7 hPa 0,0 mm 0,5 km/h (0 Bft) S-SO 157 -6,2 C 4,9 km/h (1 Bft)
30.12.2015 07:55 -3,6 C -3,8 C 88 % 1028,4 hPa 0,0 mm 0,8 km/h (0 Bft) O-SO 112 -5,3 C 0,0 km/h (0 Bft)
30.12.2015 08:00 -4,0 C -4,1 C 88 % 1028,4 hPa 0,0 mm 0,3 km/h (0 Bft) O-SO 112 -5,7 C 0,0 km/h (0 Bft)
30.12.2015 08:05 -4,2 C -4,3 C 88 % 1028,4 hPa 0,0 mm 0,0 km/h (0 Bft) O-SO 112 -5,9 C 0,0 km/h (0 Bft)
30.12.2015 08:10 -4,2 C -4,3 C 87 % 1028,4 hPa 0,0 mm 0,0 km/h (0 Bft) O-SO 112 -6,0 C 0,0 km/h (0 Bft)
30.12.2015 08:15 -3,8 C -4,1 C 88 % 1028,5 hPa 0,0 mm 0,0 km/h (0 Bft) SO 135 -5,5 C 0,0 km/h (0 Bft)
30.12.2015 08:20 -2,8 C -3,2 C 89 % 1028,5 hPa 0,0 mm 0,5 km/h (0 Bft) O-SO 112 -4,4 C 0,0 km/h (0 Bft)
30.12.2015 08:25 -3,6 C -3,7 C 88 % 1028,5 hPa 0,0 mm 0,5 km/h (0 Bft) N-NO 22 -5,3 C 0,0 km/h (0 Bft)
30.12.2015 08:30 -4,0 C -4,1 C 88 % 1028,5 hPa 0,0 mm 0,0 km/h (0 Bft) O-NO 67 -5,7 C 0,0 km/h (0 Bft)
30.12.2015 08:35 -4,0 C -4,2 C 88 % 1028,5 hPa 0,0 mm 0,0 km/h (0 Bft) O 90 -5,7 C 0,0 km/h (0 Bft)
30.12.2015 08:40 -4,2 C -4,3 C 88 % 1028,5 hPa 0,0 mm 0,0 km/h (0 Bft) O-NO 67 -5,9 C 0,0 km/h (0 Bft)
30.12.2015 08:45 -3,9 C -4,1 C 88 % 1028,5 hPa 0,0 mm 0,0 km/h (0 Bft) O 90 -5,6 C 0,0 km/h (0 Bft)
30.12.2015 08:50 -3,9 C -4,0 C 88 % 1028,5 hPa 0,0 mm 0,0 km/h (0 Bft) O-SO 112 -5,6 C 0,0 km/h (0 Bft)
30.12.2015 08:55 -3,8 C -3,9 C 88 % 1028,7 hPa 0,0 mm 0,0 km/h (0 Bft) SO 135 -5,5 C 0,0 km/h (0 Bft)
30.12.2015 09:00 -3,6 C -3,8 C 88 % 1028,7 hPa 0,0 mm 0,0 km/h (0 Bft) O-SO 112 -5,3 C 0,0 km/h (0 Bft)
30.12.2015 09:05 -3,3 C -3,5 C 88 % 1028,7 hPa 0,0 mm 0,0 km/h (0 Bft) S-SO 157 -5,0 C 0,0 km/h (0 Bft)
30.12.2015 09:10 -3,6 C -3,6 C 88 % 1028,7 hPa 0,0 mm 0,0 km/h (0 Bft) W-SW 247 -5,3 C 0,0 km/h (0 Bft)
30.12.2015 09:15 -3,9 C -3,9 C 88 % 1028,7 hPa 0,0 mm 0,0 km/h (0 Bft) NW 315 -5,6 C 0,0 km/h (0 Bft)
30.12.2015 09:20 -4,0 C -4,1 C 88 % 1028,7 hPa 0,0 mm 0,0 km/h (0 Bft) W 270 -5,7 C 5,4 km/h (1 Bft)
30.12.2015 09:25 -3,6 C -3,7 C 88 % 1028,7 hPa 0,0 mm 0,3 km/h (0 Bft) N-NO 22 -5,3 C 0,0 km/h (0 Bft)
30.12.2015 09:30 -3,4 C -3,5 C 88 % 1028,7 hPa 0,0 mm 0,3 km/h (0 Bft) N-NO 22 -5,1 C 0,0 km/h (0 Bft)
30.12.2015 09:35 -3,4 C -3,5 C 88 % 1028,5 hPa 0,0 mm 0,0 km/h (0 Bft) W-NW 292 -5,1 C 0,0 km/h (0 Bft)
30.12.2015 09:40 -3,2 C -3,3 C 88 % 1028,5 hPa 0,0 mm 0,0 km/h (0 Bft) W 270 -4,9 C 0,0 km/h (0 Bft)
30.12.2015 09:45 -2,7 C -2,9 C 89 % 1028,5 hPa 0,0 mm 0,0 km/h (0 Bft) W 270 -4,3 C 0,0 km/h (0 Bft)
30.12.2015 09:50 -2,8 C -2,9 C 89 % 1028,5 hPa 0,0 mm 0,0 km/h (0 Bft) W 270 -4,4 C 0,0 km/h (0 Bft)
30.12.2015 09:55 -2,6 C -2,7 C 89 % 1028,2 hPa 0,0 mm 0,0 km/h (0 Bft) W 270 -4,2 C 0,0 km/h (0 Bft)
30.12.2015 10:00 -2,6 C -2,7 C 89 % 1028,2 hPa 0,0 mm 0,0 km/h (0 Bft) W 270 -4,2 C 0,0 km/h (0 Bft)
30.12.2015 10:05 -2,5 C -2,6 C 89 % 1028,2 hPa 0,0 mm 0,0 km/h (0 Bft) W 270 -4,1 C 0,0 km/h (0 Bft)
30.12.2015 10:10 -2,3 C -2,4 C 89 % 1028,2 hPa 0,0 mm 0,0 km/h (0 Bft) N-NW 337 -3,9 C 0,0 km/h (0 Bft)
30.12.2015 10:15 -2,1 C -2,2 C 89 % 1028,2 hPa 0,0 mm 0,0 km/h (0 Bft) N-NO 22 -3,7 C 0,0 km/h (0 Bft)
30.12.2015 10:20 -2,1 C -2,2 C 89 % 1028,2 hPa 0,0 mm 0,0 km/h (0 Bft) N-NO 22 -3,7 C 0,0 km/h (0 Bft)
30.12.2015 10:25 -2,0 C -2,1 C 89 % 1028,2 hPa 0,0 mm 0,0 km/h (0 Bft) O-NO 67 -3,6 C 0,0 km/h (0 Bft)
30.12.2015 10:30 -1,5 C -1,7 C 89 % 1028,2 hPa 0,0 mm 1,0 km/h (0 Bft) O-NO 67 -3,1 C 3,4 km/h (1 Bft)
30.12.2015 10:35 -1,5 C -1,6 C 89 % 1028,1 hPa 0,0 mm 1,6 km/h (1 Bft) O-SO 112 -3,1 C 0,0 km/h (0 Bft)
30.12.2015 10:40 -1,1 C -1,2 C 84 % 1028,1 hPa 0,0 mm 1,8 km/h (1 Bft) O-NO 67 -3,4 C 7,0 km/h (2 Bft)
30.12.2015 10:45 -1,1 C -1,2 C 90 % 1028,1 hPa 0,0 mm 1,3 km/h (1 Bft) O-NO 67 -2,5 C 0,0 km/h (0 Bft)
30.12.2015 10:50 -1,1 C -1,2 C 90 % 1028,1 hPa 0,0 mm 0,3 km/h (0 Bft) O 90 -2,5 C 0,0 km/h (0 Bft)
30.12.2015 10:55 -1,0 C -1,2 C 90 % 1027,7 hPa 0,0 mm 0,5 km/h (0 Bft) O-NO 67 -2,4 C 2,6 km/h (1 Bft)
30.12.2015 11:00 -0,8 C -0,8 C 84 % 1027,7 hPa 0,0 mm 2,1 km/h (1 Bft) O 90 -3,2 C 7,5 km/h (2 Bft)
30.12.2015 11:05 -0,6 C -0,7 C 84 % 1027,7 hPa 0,0 mm 2,6 km/h (1 Bft) O-NO 67 -3,0 C 7,8 km/h (2 Bft)
30.12.2015 11:10 -0,5 C -0,7 C 90 % 1027,7 hPa 0,0 mm 3,4 km/h (1 Bft) NO 45 -1,9 C 10,1 km/h (2 Bft)
30.12.2015 11:15 -0,5 C -0,7 C 90 % 1027,5 hPa 0,0 mm 3,4 km/h (1 Bft) O-NO 67 -1,9 C 0,0 km/h (0 Bft)
30.12.2015 11:20 -0,5 C -0,7 C 90 % 1027,5 hPa 0,0 mm 1,6 km/h (1 Bft) O-NO 67 -1,9 C 0,0 km/h (0 Bft)
30.12.2015 11:25 -0,5 C -0,6 C 90 % 1027,5 hPa 0,0 mm 2,8 km/h (1 Bft) O-NO 67 -1,9 C 6,2 km/h (2 Bft)
30.12.2015 11:30 -0,1 C -0,5 C 90 % 1027,5 hPa 0,0 mm 4,4 km/h (1 Bft) O-NO 67 -1,5 C 5,4 km/h (1 Bft)
30.12.2015 11:35 0,0 C -0,4 C 90 % 1026,9 hPa 0,0 mm 4,1 km/h (1 Bft) O-NO 67 -1,4 C 0,0 km/h (0 Bft)
30.12.2015 11:40 -0,2 C -0,4 C 89 % 1026,9 hPa 0,0 mm 3,4 km/h (1 Bft) NO 45 -1,8 C 10,6 km/h (2 Bft)
30.12.2015 11:45 -0,1 C -0,4 C 89 % 1026,9 hPa 0,0 mm 2,3 km/h (1 Bft) NO 45 -1,7 C 3,9 km/h (1 Bft)
30.12.2015 11:50 0,0 C -0,3 C 89 % 1026,9 hPa 0,0 mm 3,6 km/h (1 Bft) O-NO 67 -1,6 C 11,1 km/h (2 Bft)
30.12.2015 11:55 0,3 C -0,2 C 83 % 1026,8 hPa 0,0 mm 5,2 km/h (1 Bft) NO 45 -2,2 C 13,5 km/h (3 Bft)
30.12.2015 12:00 0,5 C -0,2 C 89 % 1026,8 hPa 0,0 mm 6,5 km/h (2 Bft) O-NO 67 -1,1 C 14,2 km/h (3 Bft)
30.12.2015 12:05 0,7 C -0,2 C 89 % 1026,8 hPa 0,0 mm 7,5 km/h (2 Bft) O 90 -0,9 C 5,4 km/h (1 Bft)
30.12.2015 12:10 0,6 C 0,1 C 89 % 1026,8 hPa 0,0 mm 4,9 km/h (1 Bft) NO 45 -1,0 C 3,4 km/h (1 Bft)
30.12.2015 12:15 0,7 C 0,2 C 89 % 1026,7 hPa 0,0 mm 4,7 km/h (1 Bft) O-NO 67 -0,9 C 5,2 km/h (1 Bft)
30.12.2015 12:20 0,7 C 0,1 C 88 % 1026,7 hPa 0,0 mm 5,7 km/h (1 Bft) O-NO 67 -1,1 C 16,1 km/h (3 Bft)
30.12.2015 12:25 0,9 C 0,1 C 88 % 1026,7 hPa 0,0 mm 7,5 km/h (2 Bft) O-NO 67 -0,9 C 7,0 km/h (2 Bft)
30.12.2015 12:30 0,8 C 0,2 C 87 % 1026,7 hPa 0,0 mm 6,5 km/h (2 Bft) O-NO 67 -1,1 C 5,7 km/h (1 Bft)
30.12.2015 12:35 1,0 C 0,5 C 86 % 1026,5 hPa 0,0 mm 5,2 km/h (1 Bft) O-NO 67 -1,1 C 0,0 km/h (0 Bft)
30.12.2015 12:40 0,6 C 0,5 C 86 % 1026,5 hPa 0,0 mm 3,1 km/h (1 Bft) N-NO 22 -1,5 C 0,0 km/h (0 Bft)
30.12.2015 12:45 0,4 C 0,3 C 86 % 1026,5 hPa 0,0 mm 0,8 km/h (0 Bft) NO 45 -1,7 C 2,6 km/h (1 Bft)
30.12.2015 12:50 0,6 C 0,4 C 86 % 1026,5 hPa 0,0 mm 0,3 km/h (0 Bft) O 90 -1,5 C 0,0 km/h (0 Bft)
30.12.2015 12:56 0,5 C 0,3 C 86 % 1026,2 hPa 0,0 mm 0,5 km/h (0 Bft) NO 45 -1,6 C 4,1 km/h (1 Bft)
30.12.2015 13:00 0,5 C 0,4 C 86 % 1026,2 hPa 0,0 mm 1,6 km/h (1 Bft) N-NO 22 -1,6 C 3,9 km/h (1 Bft)
30.12.2015 13:05 0,8 C 0,6 C 86 % 1026,2 hPa 0,0 mm 2,3 km/h (1 Bft) O-NO 67 -1,3 C 0,0 km/h (0 Bft)
30.12.2015 13:10 1,0 C 0,8 C 86 % 1026,2 hPa 0,0 mm 1,6 km/h (1 Bft) O-NO 67 -1,1 C 0,0 km/h (0 Bft)
30.12.2015 13:15 1,1 C 0,9 C 85 % 1026,2 hPa 0,0 mm 1,3 km/h (1 Bft) NO 45 -1,1 C 0,0 km/h (0 Bft)
30.12.2015 13:20 1,1 C 0,9 C 85 % 1026,2 hPa 0,0 mm 2,1 km/h (1 Bft) S 180 -1,1 C 0,0 km/h (0 Bft)
30.12.2015 13:25 1,2 C 1,0 C 85 % 1026,2 hPa 0,0 mm 2,3 km/h (1 Bft) SO 135 -1,0 C 6,2 km/h (2 Bft)
30.12.2015 13:30 1,4 C 1,2 C 84 % 1026,2 hPa 0,0 mm 3,9 km/h (1 Bft) O-NO 67 -1,0 C 10,1 km/h (2 Bft)
30.12.2015 13:35 1,5 C 1,2 C 84 % 1025,9 hPa 0,0 mm 5,2 km/h (1 Bft) NO 45 -0,9 C 8,8 km/h (2 Bft)
30.12.2015 13:40 1,7 C 1,3 C 83 % 1025,9 hPa 0,0 mm 5,7 km/h (1 Bft) NO 45 -0,9 C 5,2 km/h (1 Bft)
30.12.2015 13:45 1,6 C 1,3 C 82 % 1025,9 hPa 0,0 mm 5,4 km/h (1 Bft) O-NO 67 -1,1 C 5,4 km/h (1 Bft)
30.12.2015 13:50 1,7 C 1,7 C 83 % 1025,9 hPa 0,0 mm 2,8 km/h (1 Bft) N-NO 22 -0,9 C 4,4 km/h (1 Bft)
30.12.2015 13:55 2,1 C 3,1 C 82 % 1025,8 hPa 0,0 mm 1,8 km/h (1 Bft) O-NO 67 -0,6 C 3,4 km/h (1 Bft)
30.12.2015 14:00 2,6 C 5,3 C 82 % 1025,8 hPa 0,0 mm 0,8 km/h (0 Bft) W 270 -0,2 C 0,0 km/h (0 Bft)
30.12.2015 14:05 2,6 C 6,4 C 80 % 1025,8 hPa 0,0 mm 0,8 km/h (0 Bft) SO 135 -0,5 C 0,0 km/h (0 Bft)
30.12.2015 14:10 2,5 C 7,5 C 79 % 1025,8 hPa 0,0 mm 0,5 km/h (0 Bft) O-NO 67 -0,8 C 0,0 km/h (0 Bft)
30.12.2015 14:15 2,3 C 7,2 C 78 % 1025,7 hPa 0,0 mm 0,0 km/h (0 Bft) O-NO 67 -1,1 C 0,0 km/h (0 Bft)
30.12.2015 14:20 2,0 C 7,3 C 78 % 1025,7 hPa 0,0 mm 0,0 km/h (0 Bft) O-NO 67 -1,4 C 0,0 km/h (0 Bft)
30.12.2015 14:25 1,9 C 6,3 C 79 % 1025,7 hPa 0,0 mm 0,0 km/h (0 Bft) O-SO 112 -1,3 C 0,0 km/h (0 Bft)
30.12.2015 14:30 1,8 C 5,3 C 79 % 1025,7 hPa 0,0 mm 0,0 km/h (0 Bft) NO 45 -1,4 C 2,6 km/h (1 Bft)
30.12.2015 14:35 1,7 C 5,3 C 79 % 1025,9 hPa 0,0 mm 0,3 km/h (0 Bft) O 90 -1,5 C 0,0 km/h (0 Bft)
30.12.2015 14:40 1,7 C 4,3 C 79 % 1025,9 hPa 0,0 mm 0,3 km/h (0 Bft) N-NO 22 -1,5 C 0,0 km/h (0 Bft)
30.12.2015 14:45 1,6 C 3,5 C 79 % 1025,9 hPa 0,0 mm 0,3 km/h (0 Bft) N-NW 337 -1,6 C 0,0 km/h (0 Bft)
30.12.2015 14:50 2,1 C 2,9 C 79 % 1025,9 hPa 0,0 mm 0,0 km/h (0 Bft) O-SO 112 -1,2 C 0,0 km/h (0 Bft)
30.12.2015 14:55 2,2 C 3,5 C 79 % 1025,7 hPa 0,0 mm 0,0 km/h (0 Bft) O 90 -1,1 C 0,0 km/h (0 Bft)
30.12.2015 15:00 2,2 C 3,8 C 79 % 1025,7 hPa 0,0 mm 0,0 km/h (0 Bft) O-SO 112 -1,1 C 0,0 km/h (0 Bft)
30.12.2015 15:05 2,2 C 4,6 C 79 % 1025,7 hPa 0,0 mm 0,0 km/h (0 Bft) S-SO 157 -1,1 C 0,0 km/h (0 Bft)
30.12.2015 15:10 2,3 C 5,4 C 78 % 1025,7 hPa 0,0 mm 0,8 km/h (0 Bft) SO 135 -1,1 C 0,0 km/h (0 Bft)
30.12.2015 15:15 2,2 C 4,6 C 78 % 1025,7 hPa 0,0 mm 0,5 km/h (0 Bft) O-SO 112 -1,2 C 0,0 km/h (0 Bft)
30.12.2015 15:20 2,3 C 3,3 C 78 % 1025,7 hPa 0,0 mm 0,0 km/h (0 Bft) O-SO 112 -1,1 C 0,0 km/h (0 Bft)
30.12.2015 15:25 2,3 C 2,7 C 78 % 1025,7 hPa 0,0 mm 0,3 km/h (0 Bft) O-SO 112 -1,1 C 0,0 km/h (0 Bft)
30.12.2015 15:30 2,1 C 2,1 C 78 % 1025,7 hPa 0,0 mm 0,3 km/h (0 Bft) O-SO 112 -1,3 C 0,0 km/h (0 Bft)
30.12.2015 15:35 2,0 C 1,9 C 78 % 1025,2 hPa 0,0 mm 0,0 km/h (0 Bft) SO 135 -1,4 C 0,0 km/h (0 Bft)
30.12.2015 15:40 2,0 C 1,8 C 78 % 1025,2 hPa 0,0 mm 0,3 km/h (0 Bft) O-SO 112 -1,4 C 0,0 km/h (0 Bft)
30.12.2015 15:45 2,0 C 1,7 C 78 % 1025,2 hPa 0,0 mm 0,3 km/h (0 Bft) O-NO 67 -1,4 C 0,0 km/h (0 Bft)
30.12.2015 15:50 1,7 C 1,5 C 79 % 1025,2 hPa 0,0 mm 0,3 km/h (0 Bft) O 90 -1,5 C 0,0 km/h (0 Bft)
30.12.2015 15:55 1,4 C 1,2 C 79 % 1025,2 hPa 0,0 mm 0,0 km/h (0 Bft) O-SO 112 -1,8 C 0,0 km/h (0 Bft)
30.12.2015 16:00 1,0 C 0,8 C 79 % 1025,2 hPa 0,0 mm 0,0 km/h (0 Bft) SO 135 -2,2 C 0,0 km/h (0 Bft)
30.12.2015 16:05 1,1 C 0,8 C 79 % 1025,2 hPa 0,0 mm 0,0 km/h (0 Bft) S-SO 157 -2,1 C 0,0 km/h (0 Bft)
30.12.2015 16:10 1,2 C 0,8 C 79 % 1025,2 hPa 0,0 mm 0,0 km/h (0 Bft) O-SO 112 -2,0 C 0,0 km/h (0 Bft)
30.12.2015 16:15 1,2 C 0,8 C 80 % 1025,0 hPa 0,0 mm 0,0 km/h (0 Bft) SO 135 -1,9 C 0,0 km/h (0 Bft)
30.12.2015 16:20 1,1 C 0,6 C 80 % 1025,0 hPa 0,0 mm 0,0 km/h (0 Bft) O-SO 112 -2,0 C 0,0 km/h (0 Bft)
30.12.2015 16:25 1,0 C 0,4 C 80 % 1025,0 hPa 0,0 mm 0,0 km/h (0 Bft) S-SO 157 -2,1 C 0,0 km/h (0 Bft)
30.12.2015 16:30 0,6 C 0,1 C 80 % 1025,0 hPa 0,0 mm 0,0 km/h (0 Bft) S-SO 157 -2,4 C 0,0 km/h (0 Bft)
30.12.2015 16:35 0,6 C 0,0 C 81 % 1024,8 hPa 0,0 mm 0,0 km/h (0 Bft) S-SO 157 -2,3 C 0,0 km/h (0 Bft)
30.12.2015 16:40 -0,3 C -0,7 C 79 % 1024,8 hPa 0,0 mm 0,0 km/h (0 Bft) O 90 -3,5 C 0,0 km/h (0 Bft)
30.12.2015 16:45 -0,7 C -1,0 C 79 % 1024,8 hPa 0,0 mm 0,0 km/h (0 Bft) O 90 -3,9 C 0,0 km/h (0 Bft)
30.12.2015 16:50 -0,6 C -1,2 C 80 % 1024,8 hPa 0,0 mm 0,0 km/h (0 Bft) O 90 -3,6 C 0,0 km/h (0 Bft)
30.12.2015 16:55 -0,7 C -1,3 C 80 % 1024,8 hPa 0,0 mm 0,0 km/h (0 Bft) O 90 -3,7 C 0,0 km/h (0 Bft)
30.12.2015 17:00 -1,0 C -1,5 C 80 % 1024,8 hPa 0,0 mm 0,0 km/h (0 Bft) O-NO 67 -4,0 C 0,0 km/h (0 Bft)
30.12.2015 17:05 -1,0 C -1,6 C 81 % 1024,8 hPa 0,0 mm 0,0 km/h (0 Bft) O-NO 67 -3,8 C 0,0 km/h (0 Bft)
30.12.2015 17:10 -0,9 C -1,5 C 82 % 1024,8 hPa 0,0 mm 0,0 km/h (0 Bft) SO 135 -3,6 C 0,0 km/h (0 Bft)
30.12.2015 17:15 -1,6 C -2,0 C 81 % 1024,7 hPa 0,0 mm 0,0 km/h (0 Bft) S-SO 157 -4,4 C 0,0 km/h (0 Bft)
30.12.2015 17:20 -1,7 C -2,2 C 81 % 1024,7 hPa 0,0 mm 0,0 km/h (0 Bft) S-SO 157 -4,5 C 0,0 km/h (0 Bft)
30.12.2015 17:25 -2,0 C -2,5 C 81 % 1024,7 hPa 0,0 mm 0,0 km/h (0 Bft) S-SO 157 -4,8 C 0,0 km/h (0 Bft)
30.12.2015 17:30 -1,5 C -2,2 C 83 % 1024,7 hPa 0,0 mm 0,0 km/h (0 Bft) S-SO 157 -4,0 C 0,0 km/h (0 Bft)
30.12.2015 17:35 -1,3 C -2,0 C 84 % 1024,7 hPa 0,0 mm 0,0 km/h (0 Bft) S-SO 157 -3,6 C 0,0 km/h (0 Bft)
30.12.2015 17:40 -1,6 C -2,2 C 84 % 1024,7 hPa 0,0 mm 0,0 km/h (0 Bft) O-SO 112 -3,9 C 2,6 km/h (1 Bft)
30.12.2015 17:45 -1,6 C -2,2 C 84 % 1024,7 hPa 0,0 mm 0,3 km/h (0 Bft) SO 135 -3,9 C 5,7 km/h (1 Bft)
30.12.2015 17:50 -1,7 C -2,2 C 84 % 1024,7 hPa 0,0 mm 0,5 km/h (0 Bft) SO 135 -4,0 C 0,0 km/h (0 Bft)
30.12.2015 17:55 -1,9 C -2,4 C 84 % 1024,5 hPa 0,0 mm 0,5 km/h (0 Bft) W-SW 247 -4,2 C 0,0 km/h (0 Bft)
30.12.2015 18:00 -2,4 C -2,8 C 84 % 1024,5 hPa 0,0 mm 0,0 km/h (0 Bft) W 270 -4,7 C 0,0 km/h (0 Bft)
30.12.2015 18:05 -2,7 C -3,1 C 83 % 1024,5 hPa 0,0 mm 0,0 km/h (0 Bft) W 270 -5,2 C 0,0 km/h (0 Bft)
30.12.2015 18:10 -2,7 C -3,1 C 84 % 1024,5 hPa 0,0 mm 0,0 km/h (0 Bft) W-SW 247 -5,0 C 0,0 km/h (0 Bft)
30.12.2015 18:15 -2,4 C -2,9 C 84 % 1024,5 hPa 0,0 mm 0,0 km/h (0 Bft) S-SO 157 -4,7 C 0,0 km/h (0 Bft)
30.12.2015 18:20 -2,6 C -3,0 C 84 % 1024,5 hPa 0,0 mm 0,0 km/h (0 Bft) W-SW 247 -4,9 C 0,0 km/h (0 Bft)
30.12.2015 18:25 -2,6 C -2,9 C 84 % 1024,5 hPa 0,0 mm 0,0 km/h (0 Bft) O-SO 112 -4,9 C 0,0 km/h (0 Bft)
30.12.2015 18:30 -2,0 C -2,3 C 85 % 1024,5 hPa 0,0 mm 1,3 km/h (1 Bft) O-NO 67 -4,2 C 4,4 km/h (1 Bft)
30.12.2015 18:35 -1,8 C -2,1 C 86 % 1024,3 hPa 0,0 mm 2,8 km/h (1 Bft) NO 45 -3,8 C 6,2 km/h (2 Bft)
30.12.2015 18:40 -1,7 C -2,0 C 86 % 1024,3 hPa 0,0 mm 4,1 km/h (1 Bft) O-NO 67 -3,7 C 9,8 km/h (2 Bft)
30.12.2015 18:45 -1,6 C -1,9 C 87 % 1024,3 hPa 0,0 mm 4,4 km/h (1 Bft) NO 45 -3,5 C 7,3 km/h (2 Bft)
30.12.2015 18:50 -1,6 C -2,0 C 88 % 1024,3 hPa 0,0 mm 4,9 km/h (1 Bft) O-NO 67 -3,3 C 7,0 km/h (2 Bft)
30.12.2015 18:55 -1,7 C -2,0 C 88 % 1024,1 hPa 0,0 mm 4,4 km/h (1 Bft) O-NO 67 -3,4 C 4,9 km/h (1 Bft)
30.12.2015 18:57 -1,7 C -2,0 C 88 % 1024,1 hPa 0,0 mm 4,4 km/h (1 Bft) O-NO 67 -3,4 C 4,9 km/h (1 Bft)
30.12.2015 19:00 -1,7 C -1,8 C 89 % 1024,1 hPa 0,0 mm 3,6 km/h (1 Bft) O-NO 67 -3,3 C 3,4 km/h (1 Bft)
30.12.2015 19:05 -1,7 C -1,9 C 89 % 1024,1 hPa 0,0 mm 3,4 km/h (1 Bft) NO 45 -3,3 C 0,0 km/h (0 Bft)
30.12.2015 19:10 -1,8 C -2,0 C 89 % 1024,1 hPa 0,0 mm 2,1 km/h (1 Bft) O-NO 67 -3,4 C 2,8 km/h (1 Bft)
30.12.2015 19:15 -1,8 C -2,0 C 89 % 1024,2 hPa 0,0 mm 1,6 km/h (1 Bft) NO 45 -3,4 C 0,0 km/h (0 Bft)
30.12.2015 19:20 -1,9 C -2,1 C 89 % 1024,2 hPa 0,0 mm 0,8 km/h (0 Bft) O-NO 67 -3,5 C 0,0 km/h (0 Bft)
30.12.2015 19:25 -1,9 C -2,1 C 89 % 1024,2 hPa 0,0 mm 0,5 km/h (0 Bft) NO 45 -3,5 C 0,0 km/h (0 Bft)
30.12.2015 19:30 -2,0 C -2,2 C 89 % 1024,2 hPa 0,0 mm 1,0 km/h (0 Bft) O-SO 112 -3,6 C 3,1 km/h (1 Bft)
30.12.2015 19:35 -2,0 C -2,2 C 89 % 1024,2 hPa 0,0 mm 1,8 km/h (1 Bft) NO 45 -3,6 C 5,7 km/h (1 Bft)
30.12.2015 19:40 -2,1 C -2,3 C 89 % 1024,2 hPa 0,0 mm 2,1 km/h (1 Bft) O 90 -3,7 C 0,0 km/h (0 Bft)
30.12.2015 19:45 -2,1 C -2,3 C 89 % 1024,2 hPa 0,0 mm 2,3 km/h (1 Bft) S-SO 157 -3,7 C 6,0 km/h (2 Bft)
30.12.2015 19:50 -2,2 C -2,4 C 89 % 1024,2 hPa 0,0 mm 1,3 km/h (1 Bft) O-SO 112 -3,8 C 0,0 km/h (0 Bft)
30.12.2015 19:55 -2,2 C -2,4 C 89 % 1024,2 hPa 0,0 mm 0,8 km/h (0 Bft) SO 135 -3,8 C 0,0 km/h (0 Bft)
30.12.2015 20:00 -2,2 C -2,4 C 89 % 1024,2 hPa 0,0 mm 0,0 km/h (0 Bft) W 270 -3,8 C 0,0 km/h (0 Bft)
30.12.2015 20:05 -2,2 C -2,4 C 89 % 1024,2 hPa 0,0 mm 0,0 km/h (0 Bft) N-NO 22 -3,8 C 0,0 km/h (0 Bft)
30.12.2015 20:10 -2,2 C -2,4 C 89 % 1024,2 hPa 0,0 mm 0,0 km/h (0 Bft) W-SW 247 -3,8 C 0,0 km/h (0 Bft)
30.12.2015 20:15 -2,2 C -2,4 C 89 % 1023,9 hPa 0,0 mm 0,0 km/h (0 Bft) SW 225 -3,8 C 0,0 km/h (0 Bft)
30.12.2015 20:20 -2,4 C -2,5 C 89 % 1023,9 hPa 0,0 mm 0,5 km/h (0 Bft) O-NO 67 -4,0 C 0,0 km/h (0 Bft)
30.12.2015 20:25 -2,4 C -2,6 C 89 % 1023,9 hPa 0,0 mm 0,5 km/h (0 Bft) SO 135 -4,0 C 0,0 km/h (0 Bft)
30.12.2015 20:30 -2,4 C -2,6 C 89 % 1023,9 hPa 0,0 mm 0,0 km/h (0 Bft) NO 45 -4,0 C 0,0 km/h (0 Bft)
30.12.2015 20:35 -2,4 C -2,6 C 89 % 1023,9 hPa 0,0 mm 0,0 km/h (0 Bft) N-NO 22 -4,0 C 0,0 km/h (0 Bft)
30.12.2015 20:40 -2,5 C -2,7 C 89 % 1023,9 hPa 0,0 mm 0,0 km/h (0 Bft) SW 225 -4,1 C 0,0 km/h (0 Bft)
30.12.2015 20:45 -2,5 C -2,7 C 89 % 1023,9 hPa 0,0 mm 0,5 km/h (0 Bft) W-SW 247 -4,1 C 4,9 km/h (1 Bft)
30.12.2015 20:50 -2,6 C -2,8 C 89 % 1023,9 hPa 0,0 mm 0,5 km/h (0 Bft) W-SW 247 -4,2 C 0,0 km/h (0 Bft)
30.12.2015 20:55 -2,6 C -2,8 C 89 % 1023,8 hPa 0,0 mm 0,5 km/h (0 Bft) W-SW 247 -4,2 C 0,0 km/h (0 Bft)
30.12.2015 21:00 -2,7 C -2,9 C 89 % 1023,8 hPa 0,0 mm 0,5 km/h (0 Bft) W-SW 247 -4,3 C 0,0 km/h (0 Bft)
30.12.2015 21:05 -2,7 C -2,9 C 89 % 1023,8 hPa 0,0 mm 0,8 km/h (0 Bft) NW 315 -4,3 C 3,9 km/h (1 Bft)
30.12.2015 21:10 -2,8 C -3,0 C 89 % 1023,8 hPa 0,0 mm 1,0 km/h (0 Bft) W 270 -4,4 C 0,0 km/h (0 Bft)
30.12.2015 21:15 -2,8 C -3,0 C 89 % 1023,7 hPa 0,0 mm 1,0 km/h (0 Bft) NW 315 -4,4 C 0,0 km/h (0 Bft)
30.12.2015 21:20 -2,8 C -3,0 C 89 % 1023,7 hPa 0,0 mm 0,8 km/h (0 Bft) W 270 -4,4 C 0,0 km/h (0 Bft)
30.12.2015 21:25 -2,8 C -3,0 C 89 % 1023,7 hPa 0,0 mm 1,3 km/h (1 Bft) S-SW 202 -4,4 C 2,8 km/h (1 Bft)
30.12.2015 21:30 -2,8 C -3,0 C 89 % 1023,7 hPa 0,0 mm 0,5 km/h (0 Bft) S 180 -4,4 C 0,0 km/h (0 Bft)
30.12.2015 21:35 -2,8 C -3,0 C 89 % 1023,6 hPa 0,0 mm 0,0 km/h (0 Bft) S 180 -4,4 C 0,0 km/h (0 Bft)
30.12.2015 21:40 -2,8 C -3,0 C 89 % 1023,6 hPa 0,0 mm 0,0 km/h (0 Bft) S 180 -4,4 C 0,0 km/h (0 Bft)
30.12.2015 21:45 -2,8 C -3,0 C 89 % 1023,6 hPa 0,0 mm 0,0 km/h (0 Bft) S 180 -4,4 C 0,0 km/h (0 Bft)
30.12.2015 21:50 -2,8 C -3,0 C 89 % 1023,6 hPa 0,0 mm 0,0 km/h (0 Bft) S 180 -4,4 C 0,0 km/h (0 Bft)
30.12.2015 21:55 -2,9 C -3,1 C 89 % 1023,6 hPa 0,0 mm 0,0 km/h (0 Bft) O 90 -4,5 C 3,4 km/h (1 Bft)
30.12.2015 22:00 -3,0 C -3,2 C 89 % 1023,6 hPa 0,0 mm 0,3 km/h (0 Bft) S-SW 202 -4,6 C 0,0 km/h (0 Bft)
30.12.2015 22:05 -3,0 C -3,2 C 89 % 1023,6 hPa 0,0 mm 0,8 km/h (0 Bft) NO 45 -4,6 C 3,1 km/h (1 Bft)
30.12.2015 22:10 -3,2 C -3,4 C 89 % 1023,6 hPa 0,0 mm 1,6 km/h (1 Bft) NO 45 -4,7 C 3,4 km/h (1 Bft)
30.12.2015 22:15 -3,3 C -3,5 C 89 % 1023,6 hPa 0,0 mm 1,6 km/h (1 Bft) NO 45 -4,8 C 0,0 km/h (0 Bft)
30.12.2015 22:20 -3,4 C -3,7 C 89 % 1023,6 hPa 0,0 mm 0,3 km/h (0 Bft) NO 45 -4,9 C 0,0 km/h (0 Bft)
30.12.2015 22:25 -3,4 C -3,7 C 89 % 1023,6 hPa 0,0 mm 0,0 km/h (0 Bft) O-NO 67 -4,9 C 0,0 km/h (0 Bft)
30.12.2015 22:30 -3,5 C -3,8 C 89 % 1023,6 hPa 0,0 mm 0,0 km/h (0 Bft) N-NO 22 -5,0 C 0,0 km/h (0 Bft)
30.12.2015 22:35 -3,7 C -4,0 C 89 % 1023,5 hPa 0,0 mm 0,0 km/h (0 Bft) O-NO 67 -5,2 C 0,0 km/h (0 Bft)
30.12.2015 22:40 -4,0 C -4,3 C 89 % 1023,5 hPa 0,0 mm 0,0 km/h (0 Bft) NO 45 -5,5 C 0,0 km/h (0 Bft)
30.12.2015 22:45 -3,9 C -4,3 C 89 % 1023,5 hPa 0,0 mm 0,0 km/h (0 Bft) O-NO 67 -5,4 C 0,0 km/h (0 Bft)
30.12.2015 22:50 -4,3 C -4,6 C 88 % 1023,5 hPa 0,0 mm 0,0 km/h (0 Bft) N-NO 22 -6,0 C 0,0 km/h (0 Bft)
30.12.2015 22:55 -4,3 C -4,7 C 88 % 1023,2 hPa 0,0 mm 0,0 km/h (0 Bft) O-NO 67 -6,0 C 0,0 km/h (0 Bft)
30.12.2015 23:00 -4,0 C -4,3 C 84 % 1023,2 hPa 0,0 mm 0,0 km/h (0 Bft) O-NO 67 -6,3 C 0,0 km/h (0 Bft)
30.12.2015 23:05 -4,0 C -4,4 C 89 % 1023,2 hPa 0,0 mm 0,0 km/h (0 Bft) O-NO 67 -5,5 C 0,0 km/h (0 Bft)
30.12.2015 23:10 -4,3 C -4,6 C 89 % 1023,2 hPa 0,0 mm 0,0 km/h (0 Bft) NW 315 -5,8 C 0,0 km/h (0 Bft)
30.12.2015 23:15 -4,3 C -4,7 C 89 % 1023,1 hPa 0,0 mm 0,0 km/h (0 Bft) NW 315 -5,8 C 0,0 km/h (0 Bft)
30.12.2015 23:20 -4,6 C -4,9 C 88 % 1023,1 hPa 0,0 mm 0,0 km/h (0 Bft) NW 315 -6,3 C 0,0 km/h (0 Bft)
30.12.2015 23:25 -4,7 C -5,0 C 88 % 1023,1 hPa 0,0 mm 0,0 km/h (0 Bft) NW 315 -6,4 C 0,0 km/h (0 Bft)
30.12.2015 23:30 -4,9 C -5,2 C 88 % 1023,1 hPa 0,0 mm 0,0 km/h (0 Bft) N-NO 22 -6,6 C 0,0 km/h (0 Bft)
30.12.2015 23:35 -4,9 C -5,3 C 88 % 1023,1 hPa 0,0 mm 0,0 km/h (0 Bft) O-NO 67 -6,6 C 0,0 km/h (0 Bft)
30.12.2015 23:40 -5,2 C -5,5 C 88 % 1023,1 hPa 0,0 mm 0,0 km/h (0 Bft) NO 45 -6,9 C 0,0 km/h (0 Bft)
30.12.2015 23:45 -5,2 C -5,5 C 88 % 1023,1 hPa 0,0 mm 0,0 km/h (0 Bft) O-NO 67 -6,9 C 0,0 km/h (0 Bft)
30.12.2015 23:50 -5,2 C -5,5 C 88 % 1023,1 hPa 0,0 mm 0,3 km/h (0 Bft) O-SO 112 -6,9 C 0,0 km/h (0 Bft)
30.12.2015 23:55 -5,2 C -5,4 C 84 % 1022,7 hPa 0,0 mm 0,0 km/h (0 Bft) O-SO 112 -7,5 C 0,0 km/h (0 Bft)
_ Min-Zeit 23:55 23:50 15:45 23:55 - 23:55 - - 23:55 23:55
Minimum _ -5,2 C -5,5 C 78 % 1022,7 hPa - 0,0 km/h (0 Bft) - - -7,5 C 0,0 km/h (0 Bft)
_ Max-Zeit 14:05 14:10 11:35 01:10 23:55 12:25 - - 14:00 12:20
Maximum _ 2,6 C 7,5 C 90 % 1031,0 hPa 0,0 mm 7,5 km/h
O-NO (2 Bft)
- - -0,2 C 16,1 km/h
O-NO (3 Bft)
Durchschnitt _ -1,7 C -1,8 C 85 % 1027,0 hPa #0,0 mm 0,7 km/h (0 Bft) O-NO - -3,9 C 1,1 km/h (1 Bft)